Content
SEND FEEDBACK

Daily
Averages
Monthly
Summary
United States of America

POTTS JUNCTION, GUAM


Home > North America > United States > Guam
Elevation: 360 feet     Latitude: 13 33N     Longitude: 144 50E

WEATHER
 
SELECT A DAY
Number of Records: 208,807;   Date Range: 1/1/95 - 7/7/14
 
SHARE

PRINT THIS DATA

[ ← Previous Day ]
WEATHER ALMANAC - JUNE 22, 2013
[ Next Day → ]
[ °C ]   °F
Weather ElementAverageHighLow
Temperature85.7 °F90 °F (11:54 am)81 °F (3:54 am)
Dewpoint74.7 °F77 °F (2:54 am)73.9 °F (11:54 am)
Humidity70 %85 % (2:54 am)59 % (11:54 am)
Barometer29.86 in29.90 in (9:54 pm)29.83 in (2:54 pm)
Wind Speed11.5 mph17.3 mph (10:54 am)
Wind Gust25.3 mph (1:54 am)
Weather ElementAverage
Visibility9.8 mi
Wind DirectionENE (78.7 °)

Weather ElementTotal
Precipitation0.05 in
Cooling Degree Days20.5 (Base 65)
Growing Degree Days35.5 (Base 50)
Averaged from 23 records on June 22, 2013
WEATHER CONDITIONS BREAKOUT
WIND DIRECTION BREAKOUT
WEATHER BY HOUR - JUNE 22, 2013
[ °C ]   °F
Local TimeTemperatureDewpointHumidityBarometerVisibilityWind DirectionWind SpeedGust SpeedPrecipitationEventsConditions
1:54 AM82.0 °F75.0 °F79 %29.87 in5.0 miENE (70°)9.2 mph25.3 mph0.01 inRainRain
2:54 AM82.0 °F77.0 °F85 %29.86 in10.0 miEast (80°)9.2 mph0.00 inClear
3:54 AM81.0 °F75.9 °F85 %29.86 in10.0 miEast (80°)8.1 mph0.04 inClear
4:54 AM81.0 °F75.9 °F85 %29.86 in10.0 miEast (80°)8.1 mphClear
5:54 AM82.0 °F75.0 °F79 %29.86 in10.0 miEast (80°)9.2 mphClear
6:54 AM82.9 °F75.0 °F77 %29.88 in10.0 miEast (80°)9.2 mphPartly Cloudy
7:54 AM84.9 °F75.9 °F74 %29.88 in10.0 miEast (80°)12.7 mphClear
8:54 AM86.0 °F75.0 °F70 %29.88 in10.0 miEast (80°)16.1 mphPartly Cloudy
9:54 AM88.0 °F75.0 °F65 %29.88 in10.0 miEast (90°)16.1 mphScattered Clouds
10:54 AM89.1 °F75.0 °F63 %29.87 in10.0 miEast (80°)17.3 mph21.9 mphScattered Clouds
11:54 AM90.0 °F73.9 °F59 %29.86 in10.0 miEast (90°)12.7 mph19.6 mphClear
12:54 PM90.0 °F73.9 °F59 %29.84 in10.0 miEast (90°)17.3 mphPartly Cloudy
1:54 PM90.0 °F73.9 °F59 %29.84 in10.0 miEast (100°)12.7 mph23.0 mphPartly Cloudy
2:54 PM90.0 °F73.9 °F59 %29.83 in10.0 miEast (80°)11.5 mphScattered Clouds
3:54 PM88.0 °F73.9 °F63 %29.83 in10.0 miEast (80°)15.0 mphScattered Clouds
4:54 PM88.0 °F73.9 °F63 %29.83 in10.0 miENE (70°)16.1 mphPartly Cloudy
5:54 PM87.1 °F73.9 °F65 %29.84 in10.0 miEast (80°)9.2 mphPartly Cloudy
6:54 PM86.0 °F73.9 °F67 %29.85 in10.0 miENE (70°)9.2 mphPartly Cloudy
7:54 PM84.9 °F73.9 °F69 %29.87 in10.0 miENE (70°)10.4 mphPartly Cloudy
8:54 PM84.9 °F73.9 °F69 %29.88 in10.0 miENE (70°)6.9 mphPartly Cloudy
9:54 PM84.9 °F75.0 °F72 %29.90 in10.0 miENE (70°)10.4 mphPartly Cloudy
10:54 PM84.9 °F73.9 °F69 %29.90 in10.0 miENE (70°)10.4 mphPartly Cloudy
11:54 PM84.0 °F75.0 °F74 %29.89 in10.0 miENE (70°)8.1 mphPartly Cloudy
Hourly data recorded from PGUM, located miles away from Potts Junction, Guam







STORIES FROM OUR PARTNERS